FLOCK 3P-44

Last updated on Wed Feb 14 2018 16:20:33 GMT+0000 (Coordinated Universal Time)

1 42033U 17008CP 18044.94858099 .00002153 00000-0 92469-4 0 9992 2 42033 97.4665 110.5570 0009769 89.9700 270.2657 15.23744157 53910
UTC large
Height (km)
Speed (km/s)
/
Latitude / Longitude
Inclination (degrees)
Orbital Period (minutes)
Azimuth
Elevation
Range (km)
Doppler Factor

Next 0 passes for location: London (51.5072 / 0.1276)

Sorry there are no passes over London.